This demonstration page uses our WeatherBlox Daily Observations layout. Learn more.

Left ArrowRight Arrow

39.29038, -76.61219

Hourly Observations for February 20, 2019

Temp ( °F °C ) Dew Point ( °F °C ) Humidity (%) Winds ( mph kmh ) Pressure ( in mb ) Visibility ( mi km ) Precip ( " mm )
12:54 am 00:54 undefined 35 1.7 7 -13.9 31 31 undefined N/A 30.61 1037 N/A N/A
1:54 am 01:54 undefined 34 1.1 9 -12.8 35 35 undefined N/A 30.61 1037 N/A N/A
2:54 am 02:54 undefined 35 1.7 12 -11.1 38 38 undefined N/A 30.57 1035 N/A N/A
3:54 am 03:54 undefined 34 1.1 14 -10 44 44 undefined N/A 30.55 1035 N/A N/A
4:54 am 04:54 undefined 34 1.1 15 -9.4 46 46 undefined N/A 30.55 1034 N/A N/A
5:54 am 05:54 undefined 34 1.1 12 -11.1 40 40 undefined N/A 30.56 1035 N/A N/A
6:54 am 06:54 undefined 34 1.1 14 -10 44 44 undefined N/A 30.55 1035 N/A N/A
7:54 am 07:54 undefined 34 1.1 16 -8.9 48 48 undefined N/A 30.55 1035 N/A N/A
8:54 am 08:54 undefined 30 -1.1 26 -3.3 85 85 undefined N/A 30.52 1034 N/A 0.02 0.51
9:54 am 09:54 undefined 29 -1.7 26 -3.3 89 89 undefined N/A 30.58 1035 N/A 0.10 2.54
10:17 am 10:17 undefined 29 -1.7 26 -3.3 89 89 undefined N/A 30.59 1036 N/A 0.02 0.51
10:54 am 10:54 undefined 30 -1.1 27 -2.8 88 88 undefined N/A 30.54 1034 N/A 0.08 2.03
11:54 am 11:54 undefined 30 -1.1 27 -2.8 88 88 undefined N/A 30.44 1031 N/A 0.09 2.29
12:54 pm 12:54 undefined 30 -1.1 27 -2.8 88 88 undefined N/A 30.42 1030 N/A 0.09 2.29
1:54 pm 13:54 undefined 30 -1.1 26 -3.3 85 85 undefined N/A 30.40 1029 N/A N/A
2:54 pm 14:54 undefined 31 -0.6 26 -3.3 82 82 undefined N/A 30.35 1028 N/A N/A
3:54 pm 15:54 undefined 32 undefined 28 -2.2 85 85 undefined N/A 30.34 1027 N/A N/A
4:54 pm 16:54 undefined 32 undefined 28 -2.2 85 85 undefined N/A 30.31 1027 N/A 0.05 1.27
5:54 pm 17:54 undefined 32 undefined 29 -1.7 88 88 undefined N/A 30.28 1025 N/A 0.01 0.25
6:54 pm 18:54 undefined 33 0.6 30 -1.1 89 89 undefined N/A 30.25 1025 N/A 0.01 0.25
7:54 pm 19:54 undefined 33 0.6 30 -1.1 89 89 undefined N/A 30.21 1023 N/A 0.03 0.76
8:54 pm 20:54 undefined 33 0.6 30 -1.1 89 89 undefined N/A 30.14 1021 N/A 0.04 1.02
9:54 pm 21:54 undefined 33 0.6 30 -1.1 89 89 undefined N/A 30.08 1019 N/A 0.01 0.25
10:54 pm 22:54 undefined 34 1.1 31 -0.6 89 89 undefined N/A 30.09 1019 N/A N/A
11:54 pm 23:54 undefined 34 1.1 31 -0.6 89 89 undefined N/A 30.05 1018 N/A 0.03 0.76

Powered by AerisWeather